EW5239 Weather Reports


Display with metric or nautical units.
time (UTC)temp
F
wind
direction
speed
MPH
gust
MPH
rain 1hr
in
rain 24hr
in
rain mn
in
humidity
%
barometer
mb
20260904015507 63 269 8.0 11.0 0.00 0.00 0.00 80 1011.7
20260904015453 63 286 8.0 11.0 0.00 0.04 0.00 80 1013.7
20260904014953 63 272 7.0 10.0 0.00 0.04 0.00 79 1014.0
20260904014507 64 253 9.0 12.0 0.00 0.00 0.00 80 1011.8
20260904014453 64 287 9.0 13.0 0.00 0.04 0.00 79 1013.9
20260904014008 64 245 10.0 15.0 0.00 0.00 0.00 79 1011.9
20260904013953 64 294 10.0 15.0 0.00 0.04 0.00 79 1013.9
20260904013453 64 286 10.0 15.0 0.00 0.04 0.00 78 1014.0
20260904013007 64 252 9.0 12.0 0.00 0.00 0.00 79 1011.8
20260904012953 64 266 9.0 11.0 0.00 0.04 0.00 78 1014.0
20260904012508 64 273 8.0 12.0 0.00 0.00 0.00 78 1011.9
20260904012453 64 252 9.0 11.0 0.00 0.04 0.00 78 1014.1
20260904011953 64 265 8.0 11.0 0.00 0.04 0.00 77 1013.9
20260904011507 64 266 8.0 9.0 0.00 0.00 0.00 78 1012.0
20260904011453 64 263 8.0 9.0 0.00 0.04 0.00 77 1014.0
20260904010953 63 254 8.0 11.0 0.00 0.04 0.00 77 1014.1
20260904010507 64 310 8.0 11.0 0.00 0.00 0.00 78 1012.0
20260904010453 63 259 8.0 11.0 0.00 0.04 0.00 77 1014.0
20260904010008 63 290 7.0 10.0 0.00 0.00 0.00 77 1011.9
20260904005958 63 240 8.0 10.0 0.00 0.04 0.00 77 1014.1
20260904005508 63 263 7.0 9.0 0.00 0.00 0.00 77 1012.0
20260904005453 63 234 7.0 9.0 0.00 0.04 0.00 77 1013.9
20260904005007 63 253 7.0 9.0 0.00 0.00 0.00 77 1012.0
20260904004953 63 257 7.0 9.0 0.00 0.04 0.00 77 1014.3
20260904004453 63 245 7.0 9.0 0.00 0.04 0.00 76 1014.1
20260904004008 63 240 6.0 8.0 0.00 0.00 0.00 76 1012.0
20260904003953 63 243 6.0 9.0 0.00 0.04 0.00 76 1014.1
20260904003507 63 226 4.0 6.0 0.00 0.00 0.00 76 1012.2
20260904003453 63 246 5.0 7.0 0.00 0.04 0.00 75 1014.1
20260904003008 63 239 4.0 6.0 0.00 0.00 0.00 75 1012.1
20260904002953 63 246 5.0 5.0 0.00 0.04 0.00 75 1014.1
20260904002508 63 243 5.0 6.0 0.00 0.00 0.00 75 1012.4
20260904002453 63 273 5.0 7.0 0.00 0.04 0.00 75 1013.9
20260904002007 63 239 5.0 6.0 0.00 0.00 0.00 74 1012.2
20260904001453 63 242 5.0 7.0 0.00 0.04 0.00 74 1014.3
20260904000953 63 228 5.0 6.0 0.00 0.04 0.00 73 1014.2
20260904000507 64 198 5.0 6.0 0.00 0.00 0.00 73 1012.4
20260904000455 64 233 5.0 7.0 0.00 0.04 0.00 73 1014.3
20260904000008 64 232 4.0 6.0 0.00 0.00 0.00 73 1012.5
20260903235959 64 238 4.0 7.0 0.00 0.04 0.00 73 1014.4
20260903235508 64 232 4.0 5.0 0.00 0.00 0.00 73 1012.4
20260903234453 64 245 5.0 6.0 0.00 0.04 0.00 72 1014.4
20260903233953 64 234 5.0 8.0 0.00 0.04 0.00 71 1014.5
20260903233507 64 246 3.0 8.0 0.00 0.00 0.00 72 1012.3
20260903233453 64 248 4.0 8.0 0.00 0.04 0.00 71 1014.4
20260903233008 64 241 3.0 4.0 0.00 0.00 0.00 71 1012.5
20260903232953 64 260 4.0 6.0 0.00 0.04 0.00 71 1014.4
20260903232007 65 272 5.0 8.0 0.00 0.00 0.00 70 1012.5
20260903231953 65 226 6.0 8.0 0.00 0.04 0.00 69 1014.5
20260903231508 65 269 7.0 9.0 0.00 0.00 0.00 70 1012.6
20260903231453 65 237 7.0 9.0 0.00 0.04 0.00 69 1014.5
20260903231008 65 262 7.0 9.0 0.00 0.00 0.00 70 1012.7
20260903230507 65 259 8.0 10.0 0.00 0.00 0.00 70 1012.7
20260903230453 65 269 8.0 10.0 0.00 0.04 0.00 69 1014.7
20260903230008 65 262 7.0 10.0 0.00 0.00 0.00 70 1012.7
20260903225959 65 276 7.0 10.0 0.00 0.04 0.00 69 1014.7
20260903225508 65 261 6.0 8.0 0.00 0.00 0.00 69 1012.8
20260903225453 65 273 6.0 8.0 0.00 0.04 0.00 68 1014.9
20260903225007 65 234 7.0 11.0 0.00 0.00 0.00 69 1012.7
20260903224508 65 248 8.0 11.0 0.00 0.00 0.00 69 1012.8
20260903224453 65 232 8.0 11.0 0.00 0.04 0.00 68 1014.8
20260903224007 65 261 8.0 11.0 0.00 0.00 0.00 69 1012.7
20260903223507 65 240 8.0 9.0 0.00 0.00 0.00 70 1012.8
20260903223453 65 242 8.0 11.0 0.00 0.04 0.00 68 1014.9
20260903223008 64 231 6.0 8.0 0.00 0.00 0.00 70 1012.8
20260903222953 64 242 6.0 10.0 0.00 0.04 0.00 68 1014.8
20260903222453 64 241 4.0 8.0 0.00 0.04 0.00 69 1014.4
20260903222007 64 228 4.0 8.0 0.00 0.00 0.00 71 1012.6
20260903221953 64 247 4.0 8.0 0.00 0.04 0.00 69 1014.8
20260903221507 64 246 3.0 4.0 0.00 0.00 0.00 71 1012.7
20260903221453 64 236 4.0 6.0 0.00 0.04 0.00 69 1014.6
20260903221007 64 268 3.0 4.0 0.00 0.00 0.00 71 1012.6
20260903220953 64 228 4.0 5.0 0.00 0.04 0.00 70 1014.6
20260903220507 64 264 3.0 4.0 0.00 0.00 0.00 71 1012.7
20260903220453 64 238 4.0 4.0 0.00 0.04 0.00 69 1014.7
20260903220008 64 245 3.0 5.0 0.00 0.00 0.00 71 1012.6
20260903220001 64 251 4.0 5.0 0.00 0.04 0.00 69 1014.7
20260903215508 64 241 4.0 5.0 0.00 0.00 0.00 71 1012.8
20260903215454 64 223 4.0 5.0 0.00 0.04 0.04 69 1014.5
20260903214953 64 209 3.0 4.0 0.00 0.04 0.04 69 1014.4
20260903214507 64 221 3.0 5.0 0.00 0.00 0.00 70 1012.7
20260903214453 64 215 3.0 4.0 0.00 0.04 0.04 69 1014.5
20260903214008 64 237 4.0 7.0 0.00 0.00 0.00 70 1012.7
20260903213953 64 221 4.0 8.0 0.00 0.04 0.04 69 1014.6
20260903213507 64 244 3.0 7.0 0.00 0.00 0.00 70 1012.7
20260903213453 64 224 4.0 8.0 0.00 0.04 0.04 69 1014.6
20260903213007 64 231 3.0 4.0 0.00 0.00 0.00 70 1012.9
20260903212953 64 230 4.0 6.0 0.00 0.04 0.04 69 1014.8
20260903212508 64 227 3.0 6.0 0.00 0.00 0.00 70 1012.8
20260903212453 64 241 3.0 4.0 0.00 0.04 0.04 68 1014.8
20260903212007 64 223 3.0 6.0 0.00 0.00 0.00 69 1012.9
20260903211953 64 227 3.0 5.0 0.00 0.04 0.04 68 1015.0
20260903211507 64 191 3.0 5.0 0.00 0.00 0.00 69 1012.8
20260903210953 64 223 3.0 4.0 0.00 0.04 0.04 67 1014.7
20260903210507 64 236 4.0 6.0 0.00 0.00 0.00 69 1012.9
20260903210453 64 206 4.0 6.0 0.00 0.04 0.04 67 1015.0
20260903210007 64 238 4.0 6.0 0.00 0.00 0.00 69 1013.0
20260903205958 64 189 4.0 6.0 0.00 0.04 0.04 67 1014.9
20260903205508 64 237 4.0 6.0 0.00 0.00 0.00 69 1013.0
20260903205453 64 209 4.0 6.0 0.00 0.04 0.04 67 1014.8
20260903204007 64 219 2.0 5.0 0.00 0.00 0.00 69 1013.0
20260903203953 64 228 3.0 5.0 0.00 0.04 0.04 67 1015.0
20260903203507 64 230 2.0 5.0 0.00 0.00 0.00 69 1013.2
20260903203453 64 229 3.0 5.0 0.00 0.04 0.04 67 1015.0
20260903203008 64 240 2.0 3.0 0.00 0.00 0.00 69 1013.2
20260903202453 64 200 3.0 4.0 0.00 0.04 0.04 67 1014.9
20260903202007 64 175 2.0 4.0 0.00 0.00 0.00 69 1013.1
20260903201953 64 200 3.0 4.0 0.00 0.04 0.04 67 1015.1
20260903201507 64 195 1.0 2.0 0.00 0.00 0.00 69 1013.2
20260903201453 64 197 2.0 3.0 0.00 0.04 0.04 67 1015.3
20260903201007 64 181 0.0 2.0 0.00 0.00 0.00 69 1013.4
20260903200953 64 189 2.0 3.0 0.00 0.04 0.04 67 1015.0
20260903200507 64 222 0.0 1.0 0.00 0.00 0.00 68 1013.4
20260903200454 64 187 2.0 3.0 0.00 0.04 0.04 67 1015.6
20260903200007 64 261 1.0 4.0 0.00 0.00 0.00 68 1013.4
20260903195958 64 203 2.0 4.0 0.00 0.04 0.04 67 1015.4
20260903195507 64 225 2.0 4.0 0.00 0.00 0.00 68 1013.4
20260903195453 64 198 3.0 4.0 0.00 0.04 0.04 67 1015.3
20260903195007 65 202 2.0 4.0 0.00 0.00 0.00 68 1013.4
20260903194955 65 189 3.0 4.0 0.00 0.04 0.04 67 1015.3
20260903194508 65 192 2.0 4.0 0.00 0.00 0.00 68 1013.5
20260903193953 65 179 2.0 4.0 0.00 0.04 0.04 67 1015.4
20260903193454 65 193 2.0 3.0 0.00 0.04 0.04 67 1015.3
20260903193007 65 205 0.0 2.0 0.00 0.00 0.00 68 1013.5
20260903192953 65 196 2.0 2.0 0.00 0.04 0.04 67 1015.4
20260903192453 65 192 1.0 2.0 0.00 0.04 0.04 67 1015.4
20260903192008 65 0 0.0 0.0 0.00 0.00 0.00 69 1013.6
20260903191953 65 195 1.0 2.0 0.00 0.04 0.04 67 1015.4
20260903191507 65 270 0.0 2.0 0.00 0.00 0.00 69 1013.6
20260903191453 65 194 2.0 2.0 0.00 0.04 0.04 67 1015.4
20260903191007 65 253 1.0 5.0 0.00 0.00 0.00 69 1013.7
20260903190953 65 196 2.0 5.0 0.00 0.04 0.04 68 1015.7
20260903190508 65 196 2.0 5.0 0.00 0.00 0.00 69 1013.8
20260903190453 65 188 3.0 5.0 0.00 0.04 0.04 68 1015.7
20260903190007 65 187 2.0 5.0 0.00 0.00 0.00 69 1013.7
20260903185959 65 190 3.0 5.0 0.00 0.04 0.04 68 1015.8
20260903185454 65 197 3.0 5.0 0.00 0.04 0.04 69 1015.7
20260903185008 65 202 1.0 3.0 0.00 0.00 0.00 69 1014.0
20260903184953 65 187 3.0 4.0 0.00 0.04 0.04 68 1015.9
20260903184507 65 181 1.0 3.0 0.00 0.00 0.00 69 1013.8
20260903184453 65 181 2.0 3.0 0.00 0.04 0.04 68 1015.7
20260903184008 65 186 2.0 4.0 0.00 0.00 0.00 69 1014.0
20260903183954 65 157 3.0 5.0 0.00 0.04 0.04 68 1015.9
20260903183507 65 181 3.0 4.0 0.00 0.00 0.00 69 1014.0
20260903183453 65 158 4.0 5.0 0.00 0.04 0.04 68 1016.0
20260903183007 65 172 1.0 4.0 0.00 0.00 0.00 69 1013.9
20260903182953 65 174 3.0 4.0 0.00 0.04 0.04 68 1015.7
20260903182508 65 181 0.0 1.0 0.00 0.00 0.00 69 1013.9
20260903182453 65 181 1.0 2.0 0.00 0.04 0.04 67 1015.9
20260903182008 65 181 0.0 2.0 0.00 0.00 0.00 69 1014.0
20260903181953 65 181 1.0 3.0 0.00 0.04 0.04 67 1016.0
20260903181508 65 181 0.0 2.0 0.00 0.00 0.00 69 1014.0
20260903181453 65 181 2.0 3.0 0.00 0.04 0.04 67 1015.8
20260903181007 66 0 0.0 0.0 0.00 0.00 0.00 68 1014.2
20260903180953 66 181 1.0 2.0 0.00 0.04 0.04 67 1015.9
20260903180507 66 0 0.0 0.0 0.00 0.00 0.00 68 1014.1
20260903180453 66 181 2.0 2.0 0.00 0.04 0.04 67 1015.9
20260903180008 66 0 0.0 0.0 0.00 0.00 0.00 68 1013.9
20260903175959 66 183 1.0 2.0 0.00 0.04 0.04 67 1016.2
20260903175508 66 0 0.0 0.0 0.00 0.00 0.00 68 1013.9
20260903175453 66 212 1.0 2.0 0.00 0.04 0.04 67 1015.8
20260903175007 66 0 0.0 0.0 0.00 0.00 0.00 68 1013.9
20260903174953 66 234 2.0 3.0 0.00 0.04 0.04 67 1015.7
20260903174507 66 237 1.0 6.0 0.00 0.00 0.00 68 1014.1
20260903174453 66 245 3.0 5.0 0.00 0.04 0.04 67 1015.9
20260903174007 66 251 3.0 6.0 0.00 0.00 0.00 68 1014.1
20260903173953 66 261 4.0 6.0 0.00 0.04 0.04 67 1015.8
20260903173507 66 260 4.0 6.0 0.00 0.00 0.00 68 1014.0
20260903173454 66 268 4.0 6.0 0.00 0.04 0.04 65 1016.0
20260903173007 66 276 4.0 6.0 0.00 0.00 0.00 66 1014.0
20260903172508 66 290 5.0 8.0 0.00 0.00 0.00 66 1014.0
20260903172454 66 254 6.0 8.0 0.00 0.04 0.04 65 1016.0
20260903172007 67 270 5.0 8.0 0.00 0.00 0.00 66 1014.1
20260903171953 67 255 5.0 8.0 0.00 0.04 0.04 65 1015.9
20260903171507 67 249 4.0 6.0 0.00 0.00 0.00 65 1014.0
20260903171454 67 265 5.0 6.0 0.00 0.04 0.04 64 1016.0
20260903171007 67 253 4.0 5.0 0.00 0.00 0.00 65 1014.0
20260903170453 67 281 5.0 7.0 0.00 0.04 0.04 64 1015.9
20260903170007 68 264 7.0 8.0 0.00 0.00 0.00 64 1013.8
20260903165959 68 281 7.0 9.0 0.00 0.04 0.04 63 1015.9
20260903165507 68 260 7.0 9.0 0.00 0.00 0.00 62 1013.8
20260903165453 68 273 7.0 9.0 0.00 0.04 0.04 61 1015.9
20260903165007 69 248 7.0 9.0 0.00 0.00 0.00 62 1013.9
20260903164953 68 272 7.0 9.0 0.00 0.04 0.04 60 1015.8
20260903164507 69 245 6.0 8.0 0.00 0.00 0.00 61 1013.7
20260903164453 69 283 7.0 8.0 0.00 0.04 0.04 59 1015.7
20260903164008 69 247 8.0 11.0 0.00 0.00 0.00 60 1013.8
20260903163953 69 279 8.0 13.0 0.00 0.04 0.04 58 1015.6
20260903163507 69 248 9.0 14.0 0.00 0.00 0.00 60 1013.9
20260903163453 69 275 9.0 14.0 0.00 0.04 0.04 58 1015.5
20260903162953 69 268 11.0 15.0 0.00 0.04 0.04 58 1015.8
20260903162508 70 299 9.0 15.0 0.00 0.00 0.00 62 1013.9
20260903162453 69 260 10.0 15.0 0.00 0.04 0.04 60 1015.7
20260903162007 70 281 7.0 9.0 0.00 0.00 0.00 63 1013.9
20260903161953 70 271 7.0 10.0 0.00 0.04 0.04 61 1016.0
20260903161507 70 259 7.0 10.0 0.00 0.00 0.00 61 1013.9
20260903161453 70 269 5.0 9.0 0.00 0.04 0.04 60 1016.0
20260903161007 70 245 6.0 10.0 0.00 0.00 0.00 60 1013.9
20260903160953 70 240 4.0 9.0 0.00 0.04 0.04 58 1015.9
20260903160507 70 228 5.0 7.0 0.00 0.00 0.00 60 1014.0
20260903160453 70 251 4.0 8.0 0.00 0.04 0.04 58 1015.9
20260903160007 70 253 6.0 8.0 0.00 0.00 0.00 60 1013.8
20260903155959 70 267 6.0 8.0 0.00 0.04 0.04 58 1015.7
20260903155507 70 261 7.0 9.0 0.00 0.00 0.00 60 1013.9
20260903155453 70 260 7.0 9.0 0.00 0.04 0.04 58 1015.9
20260903155008 70 253 7.0 9.0 0.00 0.00 0.00 59 1014.0
20260903154507 71 262 7.0 8.0 0.00 0.00 0.00 60 1014.0
20260903154453 70 250 7.0 9.0 0.00 0.04 0.04 58 1015.9
20260903154007 70 266 7.0 8.0 0.00 0.00 0.00 60 1013.9
20260903153953 70 246 7.0 9.0 0.00 0.04 0.04 58 1016.0
20260903153507 70 238 7.0 10.0 0.00 0.00 0.00 60 1014.2
20260903153453 70 270 7.0 11.0 0.00 0.04 0.04 58 1015.8
20260903153007 70 234 8.0 10.0 0.00 0.00 0.00 60 1014.1
20260903152953 70 289 8.0 11.0 0.00 0.04 0.04 58 1016.1
20260903152507 71 263 8.0 12.0 0.00 0.00 0.00 60 1014.2
20260903152453 70 298 8.0 12.0 0.00 0.04 0.04 59 1016.0
20260903151953 71 308 8.0 12.0 0.00 0.04 0.04 58 1016.2
20260903151507 71 311 8.0 11.0 0.00 0.00 0.00 59 1014.2
20260903151453 71 309 8.0 11.0 0.00 0.04 0.04 58 1016.1
20260903151007 71 296 8.0 11.0 0.00 0.00 0.00 59 1014.3
20260903150953 71 300 9.0 12.0 0.00 0.04 0.04 57 1016.2
20260903150453 71 294 9.0 14.0 0.00 0.04 0.04 57 1016.4
20260903150007 71 266 9.0 13.0 0.00 0.00 0.00 57 1014.3
20260903145959 71 297 9.0 14.0 0.00 0.04 0.04 56 1016.4
20260903145507 71 270 9.0 13.0 0.00 0.00 0.00 57 1014.3
20260903145453 71 281 9.0 15.0 0.00 0.04 0.04 56 1016.4
20260903144507 72 232 10.0 15.0 0.00 0.00 0.00 55 1014.4
20260903144453 71 247 10.0 15.0 0.00 0.04 0.04 55 1016.4
20260903144007 72 230 9.0 13.0 0.00 0.00 0.00 55 1014.4
20260903143953 72 247 10.0 14.0 0.00 0.04 0.04 54 1016.4
20260903143453 72 262 7.0 12.0 0.00 0.04 0.04 53 1016.5
20260903143007 72 297 7.0 10.0 0.00 0.00 0.00 55 1014.3
20260903142953 72 258 7.0 11.0 0.00 0.04 0.04 53 1016.4
20260903142507 72 276 8.0 11.0 0.00 0.00 0.00 55 1014.3
20260903142453 72 272 8.0 11.0 0.04 0.04 0.04 54 1016.6
20260903142007 72 276 10.0 12.0 0.00 0.00 0.00 53 1014.5
20260903141953 72 297 9.0 14.0 0.04 0.04 0.04 52 1016.2
20260903141507 72 293 9.0 12.0 0.00 0.00 0.00 53 1014.5
20260903141453 72 315 9.0 14.0 0.04 0.04 0.04 51 1016.6
20260903141007 72 257 7.0 11.0 0.00 0.00 0.00 52 1014.5
20260903140953 72 327 7.0 9.0 0.04 0.04 0.04 51 1016.3
20260903140507 72 246 7.0 12.0 0.00 0.00 0.00 53 1014.7
20260903140453 72 296 8.0 12.0 0.04 0.04 0.04 51 1016.7
20260903140007 72 280 8.0 12.0 0.00 0.00 0.00 53 1014.6
20260903135959 72 266 8.0 12.0 0.04 0.04 0.04 51 1016.6
20260903135507 72 269 7.0 11.0 0.00 0.00 0.00 53 1014.5
20260903135454 72 241 7.0 11.0 0.04 0.04 0.04 51 1016.5
20260903135007 73 237 7.0 11.0 0.00 0.00 0.00 53 1014.5
20260903134953 73 240 6.0 11.0 0.04 0.04 0.04 51 1016.6
20260903134507 73 240 7.0 11.0 0.00 0.00 0.00 54 1014.4
20260903134007 72 236 7.0 12.0 0.00 0.00 0.00 53 1014.7
20260903133953 72 258 6.0 9.0 0.04 0.04 0.04 51 1016.6
20260903133507 72 240 6.0 12.0 0.00 0.00 0.00 54 1014.8
20260903133453 72 247 6.0 10.0 0.04 0.04 0.04 52 1016.6
20260903133007 72 254 7.0 10.0 0.00 0.00 0.00 55 1014.9
20260903132953 72 245 8.0 10.0 0.04 0.04 0.04 53 1016.5
20260903132507 72 273 7.0 10.0 0.00 0.00 0.00 55 1014.9
20260903131953 72 263 7.0 8.0 0.00 0.00 0.00 52 1016.9
20260903131453 72 265 7.0 10.0 0.00 0.00 0.00 52 1016.9
20260903131007 72 259 7.0 10.0 0.00 0.00 0.00 54 1014.9
20260903130953 72 249 7.0 10.0 0.00 0.00 0.00 52 1017.1
20260903130507 72 256 6.0 8.0 0.00 0.00 0.00 56 1015.0
20260903130453 72 237 7.0 9.0 0.00 0.00 0.00 54 1016.9
20260903130007 72 290 6.0 8.0 0.00 0.00 0.00 56 1015.0
20260903125959 72 257 7.0 9.0 0.00 0.00 0.00 54 1017.0
20260903125507 72 293 5.0 8.0 0.00 0.00 0.00 56 1015.0
20260903125007 71 257 5.0 8.0 0.00 0.00 0.00 57 1015.2
20260903124953 71 263 5.0 8.0 0.00 0.00 0.00 55 1016.8
20260903124507 71 254 5.0 7.0 0.00 0.00 0.00 57 1015.3
20260903124453 71 263 4.0 8.0 0.00 0.00 0.00 56 1017.1
20260903124008 71 262 5.0 8.0 0.00 0.00 0.00 55 1015.1
20260903123953 71 233 5.0 8.0 0.00 0.00 0.00 53 1017.2
20260903123507 71 255 7.0 9.0 0.00 0.00 0.00 55 1015.2
20260903123453 71 249 7.0 10.0 0.00 0.00 0.00 53 1017.1
20260903123007 72 252 8.0 10.0 0.00 0.00 0.00 54 1015.2
20260903122953 71 265 8.0 10.0 0.00 0.00 0.00 53 1017.1
20260903122454 71 245 5.0 10.0 0.00 0.00 0.00 54 1017.3
20260903122007 71 251 4.0 5.0 0.00 0.00 0.00 58 1015.4
20260903121507 71 259 5.0 8.0 0.00 0.00 0.00 57 1015.3
20260903121453 71 251 5.0 8.0 0.00 0.00 0.00 55 1017.2
20260903120954 71 266 8.0 8.0 0.00 0.00 0.00 54 1017.4
20260903120507 71 260 7.0 8.0 0.00 0.00 0.00 57 1015.4
20260903120453 72 259 8.0 10.0 0.00 0.00 0.00 53 1017.4
20260903115507 71 260 7.0 10.0 0.00 0.00 0.00 58 1015.6
20260903115453 71 289 7.0 11.0 0.00 0.00 0.00 55 1017.5
20260903115007 71 270 6.0 8.0 0.00 0.00 0.00 58 1015.5
20260903114953 71 283 6.0 8.0 0.00 0.00 0.00 56 1017.5
20260903114507 71 265 6.0 8.0 0.00 0.00 0.00 57 1015.5
20260903114007 72 253 6.0 9.0 0.00 0.00 0.00 57 1015.6
20260903113953 72 264 6.0 11.0 0.00 0.00 0.00 54 1017.4
20260903113507 72 240 6.0 10.0 0.00 0.00 0.00 56 1015.7
20260903113454 72 247 6.0 11.0 0.00 0.00 0.00 53 1017.6
20260903113007 72 227 6.0 10.0 0.00 0.00 0.00 56 1015.7
20260903112954 72 252 6.0 11.0 0.00 0.00 0.00 53 1017.6
20260903112507 72 234 6.0 8.0 0.00 0.00 0.00 56 1015.7
20260903112007 72 270 6.0 8.0 0.00 0.00 0.00 56 1015.8
20260903111953 72 267 7.0 11.0 0.00 0.00 0.00 53 1017.8
20260903111507 72 288 6.0 8.0 0.00 0.00 0.00 56 1015.8
20260903111454 72 257 7.0 11.0 0.00 0.00 0.00 53 1017.6
20260903111007 71 286 6.0 8.0 0.00 0.00 0.00 60 1015.9
20260903110953 72 266 6.0 8.0 0.00 0.00 0.00 56 1017.7
20260903110007 71 258 7.0 9.0 0.00 0.00 0.00 58 1016.1
20260903105959 71 258 7.0 10.0 0.00 0.00 0.00 56 1017.7
20260903105453 71 254 8.0 10.0 0.00 0.00 0.00 55 1017.9
20260903105007 71 263 9.0 11.0 0.00 0.00 0.00 58 1016.1
20260903104953 71 268 9.0 11.0 0.00 0.00 0.00 56 1018.0
20260903104507 71 270 7.0 11.0 0.00 0.00 0.00 58 1016.1
20260903104453 71 281 7.0 11.0 0.00 0.00 0.00 55 1017.8
20260903103953 71 278 4.0 7.0 0.00 0.00 0.00 55 1018.1
20260903103453 71 289 6.0 8.0 0.00 0.00 0.00 55 1018.2
20260903102953 72 278 6.0 8.0 0.00 0.00 0.00 53 1018.1
20260903102507 71 237 4.0 5.0 0.00 0.00 0.00 58 1016.3
20260903102453 72 236 5.0 8.0 0.00 0.00 0.00 53 1018.2
20260903102007 71 243 5.0 6.0 0.00 0.00 0.00 57 1016.3
20260903101954 72 242 5.0 8.0 0.00 0.00 0.00 52 1018.2
20260903101507 71 247 5.0 6.0 0.00 0.00 0.00 59 1016.5
20260903101006 71 234 4.0 6.0 0.00 0.00 0.00 60 1016.4
20260903100953 72 230 5.0 11.0 0.00 0.00 0.00 54 1018.2
20260903100507 70 237 5.0 7.0 0.00 0.00 0.00 61 1016.5
20260903100453 72 231 5.0 11.0 0.00 0.00 0.00 54 1018.4
20260903100007 70 260 6.0 7.0 0.00 0.00 0.00 61 1016.5
20260903095959 71 263 6.0 7.0 0.00 0.00 0.00 56 1018.2
20260903095508 70 255 6.0 10.0 0.00 0.00 0.00 61 1016.6
20260903095007 70 243 6.0 10.0 0.00 0.00 0.00 60 1016.7
20260903094507 70 253 5.0 7.0 0.00 0.00 0.00 60 1016.6
20260903094453 72 241 5.0 7.0 0.00 0.00 0.00 53 1018.4
20260903094007 70 273 5.0 7.0 0.00 0.00 0.00 62 1016.7
20260903093953 71 247 5.0 7.0 0.00 0.00 0.00 56 1018.6
20260903093507 70 259 3.0 5.0 0.00 0.00 0.00 62 1016.6
20260903093453 71 240 3.0 5.0 0.00 0.00 0.00 57 1018.4
20260903093007 69 199 3.0 4.0 0.00 0.00 0.00 62 1016.8
20260903092953 71 218 3.0 4.0 0.00 0.00 0.00 55 1018.6
20260903092507 69 220 4.0 5.0 0.00 0.00 0.00 62 1017.0
20260903092453 70 233 4.0 6.0 0.00 0.00 0.00 55 1018.7
20260903092007 69 237 6.0 8.0 0.00 0.00 0.00 62 1017.0
20260903091953 70 256 5.0 8.0 0.00 0.00 0.00 56 1018.7
20260903091507 69 249 6.0 8.0 0.00 0.00 0.00 63 1016.8
20260903091007 69 255 5.0 8.0 0.00 0.00 0.00 63 1017.1
20260903090953 70 257 5.0 8.0 0.00 0.00 0.00 56 1018.6
20260903090007 69 262 5.0 8.0 0.00 0.00 0.00 64 1017.2
20260903085959 69 242 5.0 8.0 0.00 0.00 0.00 60 1019.0
20260903085507 68 280 6.0 8.0 0.00 0.00 0.00 65 1017.1
20260903085453 69 270 6.0 8.0 0.00 0.00 0.00 63 1018.9
20260903085007 68 271 5.0 8.0 0.00 0.00 0.00 65 1017.2
20260903084953 69 269 5.0 8.0 0.00 0.00 0.00 62 1018.9
20260903084507 68 263 5.0 11.0 0.00 0.00 0.00 66 1017.2
20260903084453 69 253 5.0 12.0 0.00 0.00 0.00 63 1018.9
20260903083953 68 265 5.0 12.0 0.00 0.00 0.00 62 1019.0
20260903083507 68 289 5.0 11.0 0.00 0.00 0.00 68 1017.0
20260903083453 68 294 5.0 7.0 0.00 0.00 0.00 64 1018.9
20260903083007 67 287 6.0 8.0 0.00 0.00 0.00 68 1017.2
20260903082953 68 288 6.0 9.0 0.00 0.00 0.00 64 1019.2
20260903082507 67 272 6.0 8.0 0.00 0.00 0.00 68 1017.0
20260903082453 68 288 6.0 9.0 0.00 0.00 0.00 65 1019.1
20260903082007 67 256 4.0 8.0 0.00 0.00 0.00 70 1017.1
20260903081507 67 240 5.0 8.0 0.00 0.00 0.00 70 1017.1
20260903080953 67 304 6.0 8.0 0.00 0.00 0.00 69 1019.1
20260903080507 66 275 6.0 7.0 0.00 0.00 0.00 74 1017.1
20260903080453 67 291 6.0 8.0 0.00 0.00 0.00 69 1018.9
20260903080007 66 269 6.0 8.0 0.00 0.00 0.00 74 1017.0
20260903075959 67 276 6.0 8.0 0.00 0.00 0.00 71 1018.9
20260903075454 67 269 6.0 8.0 0.00 0.00 0.00 71 1018.9
20260903075007 66 260 6.0 8.0 0.00 0.00 0.00 75 1017.2
20260903074953 66 259 6.0 8.0 0.00 0.00 0.00 71 1019.0
20260903074453 66 256 5.0 8.0 0.00 0.00 0.00 72 1018.9
20260903073953 66 254 5.0 7.0 0.00 0.00 0.00 74 1019.0
20260903073507 65 263 6.0 8.0 0.00 0.00 0.00 77 1017.0
20260903073453 65 245 6.0 8.0 0.00 0.00 0.00 74 1018.7
20260903073007 64 255 6.0 8.0 0.00 0.00 0.00 79 1017.1
20260903072953 65 250 6.0 8.0 0.00 0.00 0.00 75 1018.7
20260903072507 64 249 5.0 7.0 0.00 0.00 0.00 82 1017.1
20260903072453 65 261 5.0 7.0 0.00 0.00 0.00 77 1018.9
20260903072007 64 262 4.0 6.0 0.00 0.00 0.00 84 1017.1
20260903071953 64 241 3.0 6.0 0.00 0.00 0.00 79 1018.9
20260903071453 64 235 3.0 4.0 0.00 0.00 0.00 83 1018.8
20260903071006 63 264 3.0 4.0 0.00 0.00 0.00 88 1016.9
20260903070953 63 255 3.0 4.0 0.00 0.00 0.00 87 1018.9
20260903070507 62 269 3.0 4.0 0.00 0.00 0.00 91 1017.0
20260903070453 63 272 3.0 4.0 0.00 0.00 0.00 90 1018.9
20260903070007 62 270 3.0 4.0 0.00 0.00 0.00 92 1016.9
20260903065959 63 267 3.0 4.0 0.00 0.00 0.00 92 1019.0
20260903065507 62 267 2.0 4.0 0.00 0.00 0.00 93 1016.9
20260903065454 62 255 2.0 4.0 0.00 0.00 0.00 96 1018.6
20260903064953 61 247 1.0 4.0 0.00 0.00 0.00 98 1018.8
20260903064507 61 181 0.0 2.0 0.00 0.00 0.00 94 1016.8
20260903064007 60 253 1.0 2.0 0.00 0.00 0.00 96 1016.7
20260903063953 60 251 2.0 2.0 0.00 0.00 0.00 99 1018.7
20260903063507 60 277 1.0 3.0 0.00 0.00 0.00 96 1016.9
20260903063454 60 257 2.0 3.0 0.00 0.00 0.00 99 1018.8
20260903062454 59 270 2.0 3.0 0.00 0.00 0.00 99 1018.6
20260903062007 59 258 1.0 3.0 0.00 0.00 0.00 97 1016.7
20260903061953 59 250 2.0 3.0 0.00 0.00 0.00 99 1018.7
20260903061507 58 265 0.0 3.0 0.00 0.00 0.00 98 1016.9
20260903061453 58 222 1.0 3.0 0.00 0.00 0.00 99 1018.6
20260903061006 58 0 0.0 0.0 0.00 0.00 0.00 97 1016.7
20260903060507 57 0 0.0 0.0 0.00 0.00 0.00 97 1016.7
20260903060453 58 193 1.0 2.0 0.00 0.00 0.00 99 1018.6
20260903060007 57 209 0.0 2.0 0.00 0.00 0.00 97 1016.8
20260903055959 57 214 1.0 2.0 0.00 0.00 0.00 99 1019.0
20260903055507 57 209 0.0 2.0 0.00 0.00 0.00 98 1016.8
20260903055453 56 219 1.0 2.0 0.00 0.00 0.00 99 1018.8
20260903054953 56 239 1.0 2.0 0.00 0.00 0.00 99 1018.8
20260903054507 56 0 0.0 0.0 0.00 0.00 0.00 98 1017.0
20260903053953 55 188 1.0 2.0 0.00 0.00 0.00 97 1018.8
20260903053506 56 0 0.0 0.0 0.00 0.00 0.00 98 1017.0
20260903053007 56 0 0.0 0.0 0.00 0.00 0.00 98 1016.8
20260903052953 55 183 1.0 2.0 0.00 0.00 0.00 97 1018.9
20260903052453 54 181 0.0 2.0 0.00 0.00 0.00 97 1018.7
20260903052006 55 0 0.0 0.0 0.00 0.00 0.00 97 1016.7
20260903051507 55 0 0.0 0.0 0.00 0.00 0.00 97 1016.7
20260903051007 54 0 0.0 0.0 0.00 0.00 0.00 97 1016.7
20260903050953 53 0 0.0 0.0 0.00 0.00 0.00 98 1019.0
20260903050453 53 90 0.0 1.0 0.00 0.00 0.00 98 1018.9
20260903050006 53 0 0.0 0.0 0.00 0.00 0.00 98 1016.8
20260903050000 53 90 0.0 1.0 0.00 0.00 0.00 98 1018.8
20260903045507 53 0 0.0 0.0 0.00 0.00 0.00 98 1016.7
20260903045007 53 0 0.0 0.0 0.00 0.00 0.00 98 1016.8
20260903044954 53 0 0.0 0.0 0.00 0.00 0.00 98 1018.8
20260903044506 52 0 0.0 0.0 0.00 0.00 0.00 98 1016.7
20260903044453 53 0 0.0 0.0 0.00 0.00 0.00 98 1018.8
20260903044007 52 0 0.0 0.0 0.00 0.00 0.00 99 1016.9
20260903043953 52 135 0.0 1.0 0.00 0.00 0.00 98 1019.0
20260903043507 51 0 0.0 0.0 0.00 0.00 0.00 99 1016.7
20260903043453 52 135 0.0 1.0 0.00 0.00 0.00 98 1018.8
20260903043006 51 0 0.0 0.0 0.00 0.00 0.00 99 1016.8
20260903042953 52 0 0.0 0.0 0.00 0.00 0.00 99 1019.0
20260903042453 51 0 0.0 0.0 0.00 0.00 0.00 99 1018.8
20260903042007 51 0 0.0 0.0 0.00 0.00 0.00 99 1016.8
20260903041954 52 181 0.0 1.0 0.00 0.00 0.00 99 1018.8
20260903041506 51 0 0.0 0.0 0.00 0.00 0.00 99 1016.8
20260903041453 52 181 0.0 1.0 0.00 0.00 0.00 99 1018.8
20260903041007 51 0 0.0 0.0 0.00 0.00 0.00 99 1016.8
20260903040953 51 181 0.0 1.0 0.00 0.00 0.00 99 1018.8
20260903040507 51 0 0.0 0.0 0.00 0.00 0.00 99 1016.7
20260903040455 51 181 0.0 1.0 0.00 0.00 0.00 99 1018.8
20260903040009 51 0 0.0 0.0 0.00 0.00 0.00 99 1016.8
20260903035506 51 0 0.0 0.0 0.00 0.00 0.00 99 1016.6
20260903035453 51 0 0.0 0.0 0.00 0.00 0.00 99 1019.0
20260903035007 51 0 0.0 0.0 0.00 0.00 0.00 99 1016.7
20260903034953 51 0 0.0 0.0 0.00 0.00 0.00 99 1018.6
20260903034507 51 0 0.0 0.0 0.00 0.00 0.00 99 1016.6
20260903034453 52 0 0.0 0.0 0.00 0.00 0.00 99 1018.7
20260903034006 51 0 0.0 0.0 0.00 0.00 0.00 99 1016.6
20260903033954 52 0 0.0 0.0 0.00 0.00 0.00 98 1018.9
20260903033507 51 0 0.0 0.0 0.00 0.00 0.00 99 1016.5
20260903033454 52 0 0.0 0.0 0.00 0.00 0.00 99 1018.7
20260903033007 51 0 0.0 0.0 0.00 0.00 0.00 98 1016.6
20260903032953 51 0 0.0 0.0 0.00 0.00 0.00 99 1018.7
20260903032507 51 0 0.0 0.0 0.00 0.00 0.00 98 1016.8
20260903032453 51 0 0.0 0.0 0.00 0.00 0.00 99 1018.7
20260903031953 51 0 0.0 0.0 0.00 0.00 0.00 99 1018.7
20260903031507 51 0 0.0 0.0 0.00 0.00 0.00 98 1016.8
20260903031453 50 0 0.0 0.0 0.00 0.00 0.00 99 1018.6
20260903031007 51 0 0.0 0.0 0.00 0.00 0.00 98 1016.7
20260903030507 51 0 0.0 0.0 0.00 0.00 0.00 98 1016.7
20260903030006 51 0 0.0 0.0 0.00 0.00 0.00 98 1016.6
20260903025959 51 0 0.0 0.0 0.00 0.00 0.00 99 1018.7
20260903025506 51 0 0.0 0.0 0.00 0.00 0.00 98 1016.7
20260903025453 51 0 0.0 0.0 0.00 0.00 0.00 99 1018.6
20260903025007 51 0 0.0 0.0 0.00 0.00 0.00 98 1016.7
20260903024954 51 0 0.0 0.0 0.00 0.00 0.00 99 1018.6
20260903024507 51 0 0.0 0.0 0.00 0.00 0.00 97 1016.7
20260903024454 52 0 0.0 0.0 0.00 0.00 0.00 99 1018.8
20260903024007 51 0 0.0 0.0 0.00 0.00 0.00 97 1016.7
20260903023953 52 0 0.0 0.0 0.00 0.00 0.00 98 1019.0
20260903023507 52 0 0.0 0.0 0.00 0.00 0.00 97 1016.8
20260903023453 52 0 0.0 0.0 0.00 0.00 0.00 98 1018.9
20260903022953 52 0 0.0 0.0 0.00 0.00 0.00 98 1018.7
20260903022453 52 0 0.0 0.0 0.00 0.00 0.00 99 1018.9
20260903022007 52 0 0.0 0.0 0.00 0.00 0.00 96 1016.8
20260903021953 52 0 0.0 0.0 0.00 0.00 0.00 99 1018.7
20260903021507 52 0 0.0 0.0 0.00 0.00 0.00 96 1016.7
20260903021454 52 0 0.0 0.0 0.00 0.00 0.00 98 1018.8
20260903021007 52 0 0.0 0.0 0.00 0.00 0.00 96 1016.7
20260903020954 52 0 0.0 0.0 0.00 0.00 0.00 98 1018.8
20260903020507 53 0 0.0 0.0 0.00 0.00 0.00 96 1016.7
20260903020453 52 0 0.0 0.0 0.00 0.00 0.00 98 1018.8
20260903020007 53 0 0.0 0.0 0.00 0.00 0.00 96 1016.8
20260903015959 52 0 0.0 0.0 0.00 0.00 0.00 98 1018.8